Regional Weather Roundup
Issued by NWS

Home | Current Version | Previous Version | Text Only | Print | Product List | Glossary On
Versions: 1 2 3 4 5 6 7 8 9 10 11 12 13 14 15 16 17 18 19 20 21 22 23 24 25 26 27 28 29 30 31 32 33 34 35 36 37 38 39 40 41 42 43 44 45 46 47 48 49 50
000
ASHW40 PHFO 192143
RWRHI

WEATHER ROUNDUP FOR HAWAII
NATIONAL WEATHER SERVICE HONOLULU HI
1100 AM HST FRI DEC 19 2014

THIS IS AN AUTOMATED REPORT THAT HAS NOT BEEN QUALITY CONTROLLED.

NOTE..."FAIR" INDICATES FEW OR NO CLOUDS BELOW 12,000 FEET WITH NO
SIGNIFICANT WEATHER AND/OR OBSTRUCTIONS TO VISIBILITY.

* - THESE SITES REPORT LIMITED FIELDS

HIZ001>004-192200-
KAUAI-NIIHAU-

CITY           SKY/WX    TMP DP  RH WIND       PRES   REMARKS
LIHUE APT      MOSUNNY   81  66  60 E13       30.14F
PORT ALLEN*      N/A     81 N/A N/A E21G30      N/A
POIPU*           N/A     81 N/A N/A NE8G16      N/A
PRINCEVILLE*     N/A     77 N/A N/A MISG        N/A
KOKOLE POINT*  NOT AVBL
MOLOAA DAIRY*  NOT AVBL
WAIMEA HTS*      N/A     81  57  44 E13G22      N/A
PUU OPAE*        N/A     75  57  53 SE1G12      N/A
PUU LUA*       NOT AVBL
MAKAHA RIDGE*  NOT AVBL
$$

HIZ005>011-192200-
OAHU-

CITY           SKY/WX    TMP DP  RH WIND       PRES   REMARKS
HONOLULU       LGT RAIN  77  68  73 NE9G21    30.10F
KALAELOA       PTSUNNY   78  67  68 VRB6      30.12F
KANEOHE MCB    LGT RAIN  78  69  73 E10G16    30.12F
WHEELER FIELD  DRIZZLE   75  66  72 E9        30.13F
BELLOWS*         N/A    N/A N/A N/A E15         N/A
KAHUKU*          N/A    N/A N/A N/A E12G22      N/A
WHEELER*       NOT AVBL
WAIANAE HARBOR NOT AVBL
DILLINGHAM*      N/A     84  64  51 NE9G17      N/A
KAHUKU TRN*      N/A    N/A N/A N/A E12G24      N/A
KAWAILOA*        N/A     72  64  78 E9G20       N/A
KII*             N/A     79  70  73 E18G25      N/A
MAKUA RANGE*     N/A     81  59  47 E5G10       N/A
OAHU FOREST NW   N/A     64 -11   4 CALM        N/A
SCHOFIELD BRK*   N/A     63  54  72 MISG        N/A
SCHOFIELD S*   NOT AVBL
WAIANAE VLY*     N/A     84  64  51 SE8G18      N/A
KUAOKALA*        N/A     77  64  65 CALM        N/A
HONOULIUULI*   NOT AVBL
MOKUOLOE IS*     N/A    N/A N/A N/A MISG        N/A
PALEHUA*         N/A     86  70  58 CALM        N/A  HX  90
WAIAWA PHB*    NOT AVBL
$$

HIZ012>013-192200-
MOLOKAI-

CITY           SKY/WX    TMP DP  RH WIND       PRES   REMARKS
MOLOKAI AIRPT  MOSUNNY   78  69  73 NE12G20   30.10F
KALAUPAPA      NOT AVBL
MAKAPULAPAI*     N/A     79  70  73 E21G33      N/A
MOLOKAI 1*       N/A     73  66  78 E5G22       N/A
PUU ALII*        N/A     60  60  99 E3G13       N/A
$$

HIZ016-192200-
KAHOOLAWE-

CITY           SKY/WX    TMP DP  RH WIND       PRES   REMARKS
KAHOOLAWE*       N/A     73 N/A N/A E30G45      N/A
HAKIOAWA*        N/A     77  66  68 MISG      30.49
HONOKANAIA*      N/A     80  65  61 NE18G35     N/A
KANELOA*         N/A     77  70  78 E26G37    29.31F
KEALIALALO*    NOT AVBL
LUA MAKIKA*    NOT AVBL
$$

HIZ014>015-192200-
LANAI-

CITY           SKY/WX    TMP DP  RH WIND       PRES   REMARKS
LANAI CITY     FAIR      80  64  58 W8        30.14F
LANAI 1*         N/A     79  72  78 NE13G23     N/A
$$

HIZ017>028-192200-
MAUI-

CITY           SKY/WX    TMP DP  RH WIND       PRES   REMARKS
KAHULUI        MOSUNNY   83  62  49 SE3       30.07F
KAPALUA-W MAUI MOSUNNY   79  66  65 NE13      30.10F
HANA AIRPORT   PTSUNNY   77  68  73 SE8       30.13F
HANA*            N/A     77 N/A N/A E8G20       N/A
HALEAKALA SUMM   N/A     59  -9   6 SE25G41     N/A
MAALAEA BAY*   NOT AVBL
HALEAKALA*     NOT AVBL
KAUPO GAP*       N/A     73  45  35 E12G23      N/A
KULA 1*          N/A     71   7   8 SW3         N/A
$$

HIZ023>026-192200-
BIG ISLAND OF HAWAII COAST AND LOWER SLOPES-

CITY           SKY/WX    TMP DP  RH WIND       PRES   REMARKS
KAILUA KONA    SUNNY     80  66  62 W7        30.05F
HILO           PTSUNNY   79  67  66 CALM      30.14F
HONOKAA*       NOT AVBL
KAWAIHAE MWT*    N/A     81 N/A N/A W8          N/A
KAWAIHAE*        N/A     79 N/A N/A W8          N/A
SOUTH POINT*     N/A     75 N/A N/A NE25G36     N/A
UPOLU AIRPORT*   N/A    N/A N/A N/A NE20G29     N/A
KAMUELA*       CLEAR     73  61  64 NE6       30.15F
HAKALAU*         N/A    N/A N/A N/A S7G15       N/A
KALOKO-HONOKO*   N/A     81  64  57 SW7       30.05F
PALI 2*          N/A     73  59  60 N23G30      N/A
KEALAKOMO*       N/A     84  61  45 NE18G26     N/A
KAUPULEHU*       N/A     79  59  50 NW9G15      N/A
KAPAPALA*        N/A     80  59  48 E7G17       N/A
LOWER KAHUKU*    N/A     68  59  73 E5G18       N/A
PUHE CS*       NOT AVBL
PUHO CS*         N/A     80  62  53 SW3         N/A
PTA KEAMUKU*     N/A     70  55  60 CALM        N/A
WAIKOLOA*        N/A     82  57  42 W7G13       N/A
$$

HIZ027>028-192200-
BIG ISLAND OF HAWAII INTERIOR AND SUMMMITS-

CITY           SKY/WX    TMP DP  RH WIND       PRES   REMARKS
BRADSHAW FIELD SUNNY     70  20  14 SE22G29   30.38S
MK VISITOR CEN NOT AVBL
MAUNA KEA*       N/A     43 -11  10 S26         N/A
MAUNA LOA*       N/A     55 -24   3 MISG        N/A
MAUNA LOA 1*   NOT AVBL
PTA KIPUKA*      N/A     72  43  35 NW6G12      N/A
PTA RANGE 17*    N/A     73   3   6 E14G26      N/A
PTA WEST*        N/A     68  52  56 NW5G13      N/A
NENE CABIN*      N/A    N/A N/A N/A E10G18      N/A
AHUMOA*          N/A     67  40  37 W6G14       N/A
PTA PORTABLE*  NOT AVBL
PUU MALI*      NOT AVBL
$$

HIC003-192200-
NORTHWEST ISLANDS-

CITY           SKY/WX    TMP DP  RH WIND       PRES   REMARKS
MIDWAY ISLAND  SUNNY     79  72  78 SW22      29.97R
MIDWAY NOS*    NOT AVBL
FRENCH FRIGATE NOT AVBL
$$

PHZ110>124-180-192200-
BUOY REPORTS

STATION/POSITION TIME  TEMP    WIND        PRES    WAVE   SWELL
                       AIR SEA DIR/SP/G            HT/PER HT/DIR
                 (UTC) (F)     (DEG/KT/KT) (MB)    (FT/S) (FT/D)
BUOY 51001       NOT AVBL
BUOY 51101       2100   76 77  120/ 14/ 17 1020.1R   9/11   8/320
BUOY 51100       2100          120/ 16       N/A
BUOY 51003       2100   78 79   80/ 16/ 19 1018.3S   9/14   8
BUOY 51004       2045   76 78   70/ 23/ 31 1017.2F   9/ 8   5/110
BARBERS PT BUOY  NOT AVBL
WAIMEA BAY BUOY  2100      77                N/A     7/13
KAILUA BAY BUOY  2100      77                N/A     8/14   5/360
LANAI BUOY       2100      78                N/A     3/14   3/300
BARBERS PT 2     2100      78                N/A     6/14   3/320
PAUWELA MAUI     2100      77                N/A    10/14
HILO             2100      78                N/A     8/ 8   5/350
KANEOHE BAY BUOY 2100      77                N/A     6/13   3/340
HANALEI KAUAI    NOT AVBL
KAHULUI HARBOR   2100   78 76   40/ 14/ 18 1018.0F
HONOLULU HARBOR  2100   79      60/  6/ 11 1019.6F
KILO NALU        NOT AVBL
HILO HARBOR      2100   82     160/  4/  7 1019.8F
MOKUOLOE         2100   77 75   90/ 14/ 18 1020.1F
NAWILIWILI       2100      78                N/A
WHOTS BUOY       NOT AVBL
BUOY 51028       NOT AVBL
$$

......................KEY........................................
  SKY/WX - SKY CONDITIONS/PRESENT WEATHER
  TMP    - TEMPERATURE IN FAHRENHEIT
  DWPT   - DEWPOINT IN FAHRENHEIT
  RH     - RELATIVE HUMIDITY IN PERCENT
  WIND   - DIRECTION AND SPEED /MPH FOR ISLANDS...KTS FOR BUOYS/
  PRES   - MEAN SEA LEVEL PRESSURE IN INCHES OF HG
  VSB    - VISIBILITY IN MILES
  HX     - HEAT INDEX
  WCI    - WIND CHILL INDEX
  VRB    - VARIABLE WIND DIRECTION
  N/A    - NOT AVAILABLE


USA.gov is the U.S. government's official web portal to all federal, state and local government web resources and services.